{"data":{"norad_id":67731,"intl_designator":"2026-026L","name":"STARLINK-36315","alt_names":[],"object_type":"PAYLOAD","status":"ACTIVE","operator":null,"country":"US","launch_date":"2026-02-11","launch_site_code":"AFWTR","launch_vehicle":null,"mission":null,"orbit_class":"UNKNOWN","rcs_meters":null,"size_class":null,"mass_kg":null,"dimensions":null,"purposes":["comms"],"wikipedia_slug":null,"has_3d_model":false,"image_url":null,"decayed_at":null,"tle_current":{"epoch":"2026-05-25T03:37:36.317856Z","epoch_age_seconds":58111,"freshness":"FRESH","line1":"1 67731U 26026L   26145.15111479  .00026874  00000+0  83171-3 0  9996","line2":"2 67731  97.2845 198.6716 0000585 126.3110 233.8187 15.33448445 15842","mean_motion":15.33448445,"eccentricity":5.85e-5,"inclination_deg":97.2845,"raan_deg":198.6716,"arg_perigee_deg":126.311,"mean_anomaly_deg":233.8187,"bstar":0.00083171,"rev_number":1584,"period_min":93.905993689928,"perigee_km":465.13256991049,"apogee_km":465.93327929167,"semimajor_km":6843.6699246011,"source":"CELESTRAK","updated_at":"2026-05-25T13:38:21.688546Z"}}}